Time,TemperatureF,DewpointF,PressureIn,WindDirection,WindDirectionDegrees,WindSpeedMPH,WindSpeedGustMPH,Humidity,HourlyPrecipIn,Conditions,Clouds,dailyrainin,SoftwareType,DateUTC
2013-02-22 00:04:00,38.8,29.1,29.75,ENE,68,0.0,0.0,68,0.00,,,0.00,WUHU216HW,2013-02-21 23:04:00,
2013-02-22 00:08:00,38.8,29.1,29.76,ENE,68,0.0,0.0,68,0.00,,,0.00,WUHU216HW,2013-02-21 23:08:00,
2013-02-22 00:14:00,38.8,29.1,29.75,NE,45,0.0,0.0,68,0.00,,,0.00,WUHU216HW,2013-02-21 23:14:00,
2013-02-22 00:19:00,39.0,29.2,29.75,NE,45,0.0,0.0,68,0.00,,,0.00,WUHU216HW,2013-02-21 23:19:00,
2013-02-22 00:24:00,39.2,29.0,29.75,ENE,68,0.0,0.0,67,0.00,,,0.00,WUHU216HW,2013-02-21 23:24:00,
2013-02-22 00:29:00,39.3,30.0,29.75,East,90,1.1,1.5,69,0.00,,,0.00,WUHU216HW,2013-02-21 23:29:00,
2013-02-22 00:34:00,39.3,30.3,29.75,East,90,1.3,1.5,70,0.00,,,0.00,WUHU216HW,2013-02-21 23:34:00,
2013-02-22 00:39:00,39.3,30.7,29.75,East,90,0.0,1.3,71,0.00,,,0.00,WUHU216HW,2013-02-21 23:39:00,
2013-02-22 00:44:00,39.0,30.3,29.75,East,90,0.0,0.0,71,0.00,,,0.00,WUHU216HW,2013-02-21 23:44:00,
2013-02-22 00:49:00,39.2,30.2,29.75,ESE,113,0.0,1.3,70,0.00,,,0.00,WUHU216HW,2013-02-21 23:49:00,
2013-02-22 00:54:00,39.3,30.3,29.74,ENE,68,0.6,1.3,70,0.00,,,0.00,WUHU216HW,2013-02-21 23:54:00,
2013-02-22 00:59:00,39.3,30.7,29.74,ESE,113,0.0,1.1,71,0.00,,,0.00,WUHU216HW,2013-02-21 23:59:00,
2013-02-22 01:04:00,39.0,30.7,29.74,East,90,0.0,0.8,72,0.00,,,0.00,WUHU216HW,2013-02-22 00:04:00,
2013-02-22 01:09:00,39.0,30.3,29.74,ESE,113,0.0,0.0,71,0.00,,,0.00,WUHU216HW,2013-02-22 00:09:00,
2013-02-22 01:14:00,39.0,30.3,29.74,SE,135,0.0,0.0,71,0.00,,,0.00,WUHU216HW,2013-02-22 00:14:00,
2013-02-22 01:19:00,39.3,30.3,29.74,East,90,0.0,0.0,70,0.00,,,0.00,WUHU216HW,2013-02-22 00:19:00,
2013-02-22 01:24:00,39.3,30.7,29.74,NE,45,0.0,1.3,71,0.00,,,0.00,WUHU216HW,2013-02-22 00:24:00,
2013-02-22 01:29:00,39.3,31.0,29.74,ENE,68,0.0,1.3,72,0.00,,,0.00,WUHU216HW,2013-02-22 00:29:00,
2013-02-22 01:34:00,38.8,30.5,29.74,ENE,68,0.0,0.0,72,0.00,,,0.00,WUHU216HW,2013-02-22 00:34:00,
2013-02-22 01:39:00,38.6,29.8,29.74,ESE,113,0.0,0.0,71,0.00,,,0.00,WUHU216HW,2013-02-22 00:39:00,
2013-02-22 01:44:00,38.8,29.8,29.74,ENE,68,0.0,0.0,70,0.00,,,0.00,WUHU216HW,2013-02-22 00:44:00,
2013-02-22 01:49:00,39.0,29.6,29.74,ENE,68,0.0,0.0,69,0.00,,,0.00,WUHU216HW,2013-02-22 00:49:00,
2013-02-22 01:54:00,39.0,29.6,29.74,East,90,2.0,2.0,69,0.00,,,0.00,WUHU216HW,2013-02-22 00:54:00,
2013-02-22 01:59:00,39.3,30.0,29.74,East,90,0.8,2.0,69,0.00,,,0.00,WUHU216HW,2013-02-22 00:59:00,
2013-02-22 02:04:00,39.3,30.3,29.74,NE,45,0.0,1.5,70,0.00,,,0.00,WUHU216HW,2013-02-22 01:04:00,
2013-02-22 02:09:00,39.2,30.2,29.74,East,90,2.2,2.2,70,0.00,,,0.00,WUHU216HW,2013-02-22 01:09:00,
2013-02-22 02:14:00,39.5,30.5,29.74,East,90,1.7,2.2,70,0.00,,,0.00,WUHU216HW,2013-02-22 01:14:00,
2013-02-22 02:19:00,39.5,30.8,29.73,East,90,2.4,2.4,71,0.00,,,0.00,WUHU216HW,2013-02-22 01:19:00,
2013-02-22 02:24:00,39.9,31.2,29.73,ENE,68,0.0,2.9,71,0.00,,,0.00,WUHU216HW,2013-02-22 01:24:00,
2013-02-22 02:29:00,39.7,31.4,29.73,ENE,68,0.0,2.9,72,0.00,,,0.00,WUHU216HW,2013-02-22 01:29:00,
2013-02-22 02:34:00,38.8,31.2,29.73,SW,225,1.5,2.0,74,0.00,,,0.00,WUHU216HW,2013-02-22 01:34:00,
2013-02-22 02:39:00,38.3,30.0,29.73,South,180,0.8,2.0,72,0.00,,,0.00,WUHU216HW,2013-02-22 01:39:00,
2013-02-22 02:44:00,38.1,29.5,29.73,SSW,203,0.0,1.3,71,0.00,,,0.00,WUHU216HW,2013-02-22 01:44:00,
2013-02-22 02:49:00,37.9,29.3,29.73,SSW,203,0.0,0.0,71,0.00,,,0.00,WUHU216HW,2013-02-22 01:49:00,
2013-02-22 02:54:00,37.5,29.0,29.73,South,180,0.0,0.0,71,0.00,,,0.00,WUHU216HW,2013-02-22 01:54:00,
2013-02-22 02:59:00,37.2,28.4,29.73,SE,135,0.0,0.0,70,0.00,,,0.00,WUHU216HW,2013-02-22 01:59:00,
2013-02-22 03:04:00,37.2,28.0,29.73,SE,135,0.0,0.0,69,0.00,,,0.00,WUHU216HW,2013-02-22 02:04:00,
2013-02-22 03:09:00,37.0,27.8,29.73,ESE,113,0.0,0.0,69,0.00,,,0.00,WUHU216HW,2013-02-22 02:09:00,
2013-02-22 03:14:00,37.2,27.2,29.73,SSE,158,0.0,0.0,67,0.00,,,0.00,WUHU216HW,2013-02-22 02:14:00,
2013-02-22 03:19:00,37.2,27.2,29.73,SSE,158,0.0,0.0,67,0.00,,,0.00,WUHU216HW,2013-02-22 02:19:00,
2013-02-22 03:24:00,37.2,26.8,29.73,ESE,113,0.0,0.0,66,0.00,,,0.00,WUHU216HW,2013-02-22 02:24:00,
2013-02-22 03:29:00,37.2,26.8,29.73,ENE,68,0.6,0.6,66,0.00,,,0.00,WUHU216HW,2013-02-22 02:29:00,
2013-02-22 03:34:00,37.2,26.5,29.73,North,0,0.0,1.3,65,0.00,,,0.00,WUHU216HW,2013-02-22 02:34:00,
2013-02-22 03:39:00,37.4,25.5,29.73,ESE,113,2.4,2.6,62,0.00,,,0.00,WUHU216HW,2013-02-22 02:39:00,
2013-02-22 03:44:00,37.2,25.7,29.72,East,90,2.0,2.6,63,0.00,,,0.00,WUHU216HW,2013-02-22 02:44:00,
2013-02-22 03:49:00,37.7,26.2,29.73,West,270,1.3,2.0,63,0.00,,,0.00,WUHU216HW,2013-02-22 02:49:00,
2013-02-22 03:54:00,38.1,26.5,29.72,SE,135,1.4,2.0,63,0.00,,,0.00,WUHU216HW,2013-02-22 02:54:00,
2013-02-22 03:59:00,37.9,26.7,29.73,South,180,0.6,2.0,64,0.00,,,0.00,WUHU216HW,2013-02-22 02:59:00,
2013-02-22 04:04:00,38.1,27.3,29.72,ESE,120,1.1,2.9,65,0.00,,,0.00,WUHU216HW,2013-02-22 03:04:00,
2013-02-22 04:09:00,38.3,27.5,29.72,WSW,248,1.3,2.9,65,0.00,,,0.00,WUHU216HW,2013-02-22 03:09:00,
2013-02-22 04:14:00,37.9,27.5,29.72,WSW,248,0.0,1.3,66,0.00,,,0.00,WUHU216HW,2013-02-22 03:14:00,
2013-02-22 04:19:00,37.5,27.6,29.72,WSW,248,0.0,0.0,67,0.00,,,0.00,WUHU216HW,2013-02-22 03:19:00,
2013-02-22 04:24:00,37.4,27.4,29.72,WSW,248,0.0,0.0,67,0.00,,,0.00,WUHU216HW,2013-02-22 03:24:00,
2013-02-22 04:29:00,37.2,27.2,29.72,NW,315,0.0,0.0,67,0.00,,,0.00,WUHU216HW,2013-02-22 03:29:00,
2013-02-22 04:34:00,36.8,27.2,29.72,North,0,0.0,0.0,68,0.00,,,0.00,WUHU216HW,2013-02-22 03:34:00,
2013-02-22 04:39:00,36.6,26.0,29.72,East,90,2.4,2.4,65,0.00,,,0.00,WUHU216HW,2013-02-22 03:39:00,
2013-02-22 04:44:00,37.2,24.9,29.72,East,90,1.5,2.4,61,0.00,,,0.00,WUHU216HW,2013-02-22 03:44:00,
2013-02-22 04:49:00,37.4,25.5,29.72,East,90,0.0,2.2,62,0.00,,,0.00,WUHU216HW,2013-02-22 03:49:00,
2013-02-22 04:54:00,37.2,25.7,29.72,SSW,203,1.1,1.1,63,0.00,,,0.00,WUHU216HW,2013-02-22 03:54:00,
2013-02-22 04:59:00,37.7,26.2,29.72,SSW,203,0.0,1.1,63,0.00,,,0.00,WUHU216HW,2013-02-22 03:59:00,
2013-02-22 05:04:00,37.9,26.4,29.72,SSW,203,0.0,0.0,63,0.00,,,0.00,WUHU216HW,2013-02-22 04:04:00,
2013-02-22 05:09:00,37.9,26.4,29.71,East,90,0.8,0.8,63,0.00,,,0.00,WUHU216HW,2013-02-22 04:09:00,
2013-02-22 05:14:00,38.3,26.7,29.71,ESE,113,0.0,0.8,63,0.00,,,0.00,WUHU216HW,2013-02-22 04:14:00,
2013-02-22 05:19:00,38.3,26.7,29.71,South,180,0.0,0.0,63,0.00,,,0.00,WUHU216HW,2013-02-22 04:19:00,
2013-02-22 05:24:00,37.9,27.1,29.72,SSW,203,0.0,0.0,64,0.00,,,0.00,WUHU216HW,2013-02-22 04:24:00,
2013-02-22 05:29:00,37.7,27.0,29.71,WSW,248,0.0,0.0,65,0.00,,,0.00,WUHU216HW,2013-02-22 04:29:00,
2013-02-22 05:35:00,37.9,27.1,29.71,East,90,0.0,1.1,65,0.00,,,0.00,WUHU216HW,2013-02-22 04:35:00,
2013-02-22 05:40:00,37.5,27.2,29.71,NW,315,0.0,2.0,66,0.00,,,0.00,WUHU216HW,2013-02-22 04:40:00,
2013-02-22 05:45:00,37.4,26.6,29.71,ESE,113,2.7,3.1,65,0.00,,,0.00,WUHU216HW,2013-02-22 04:45:00,
2013-02-22 05:50:00,37.5,26.4,29.71,North,0,2.4,3.1,64,0.00,,,0.00,WUHU216HW,2013-02-22 04:50:00,
2013-02-22 05:55:00,37.7,25.5,29.71,WSW,248,2.0,2.4,62,0.00,,,0.00,WUHU216HW,2013-02-22 04:55:00,
2013-02-22 06:00:00,37.5,25.8,29.71,South,180,0.0,3.5,62,0.00,,,0.00,WUHU216HW,2013-02-22 05:00:00,
2013-02-22 06:05:00,37.9,26.4,29.71,SSE,158,1.1,2.6,63,0.00,,,0.00,WUHU216HW,2013-02-22 05:05:00,
2013-02-22 06:10:00,38.4,26.5,29.71,SE,135,0.0,1.1,62,0.00,,,0.00,WUHU216HW,2013-02-22 05:10:00,
2013-02-22 06:15:00,38.8,26.8,29.71,SW,225,0.0,0.0,62,0.00,,,0.00,WUHU216HW,2013-02-22 05:15:00,
2013-02-22 06:20:00,39.0,27.0,29.71,SSW,203,1.5,2.2,62,0.00,,,0.00,WUHU216HW,2013-02-22 05:20:00,
2013-02-22 06:25:00,39.7,28.0,29.71,ESE,113,2.0,2.2,63,0.00,,,0.00,WUHU216HW,2013-02-22 05:25:00,
2013-02-22 06:30:00,40.1,28.8,29.70,ESE,113,1.9,2.2,64,0.00,,,0.00,WUHU216HW,2013-02-22 05:30:00,
2013-02-22 06:35:00,40.2,29.3,29.70,ESE,113,0.0,2.2,65,0.00,,,0.00,WUHU216HW,2013-02-22 05:35:00,
2013-02-22 06:40:00,40.6,29.7,29.71,SW,225,0.0,2.0,65,0.00,,,0.00,WUHU216HW,2013-02-22 05:40:00,
2013-02-22 06:45:00,40.6,30.5,29.71,ENE,68,0.6,0.8,67,0.00,,,0.00,WUHU216HW,2013-02-22 05:45:00,
2013-02-22 06:50:00,40.4,30.7,29.71,SSW,203,0.0,4.0,68,0.00,,,0.00,WUHU216HW,2013-02-22 05:50:00,
2013-02-22 06:55:00,40.4,30.7,29.71,SW,225,0.0,4.0,68,0.00,,,0.00,WUHU216HW,2013-02-22 05:55:00,
2013-02-22 07:00:00,40.6,30.8,29.71,WNW,293,0.0,2.4,68,0.00,,,0.00,WUHU216HW,2013-02-22 06:00:00,
2013-02-22 07:05:00,40.6,30.8,29.71,West,270,0.8,1.1,68,0.00,,,0.00,WUHU216HW,2013-02-22 06:05:00,
2013-02-22 07:10:00,40.6,31.2,29.71,SSW,203,0.0,0.8,69,0.00,,,0.00,WUHU216HW,2013-02-22 06:10:00,
2013-02-22 07:15:00,40.6,30.8,29.71,SSE,158,0.0,1.1,68,0.00,,,0.00,WUHU216HW,2013-02-22 06:15:00,
2013-02-22 07:20:00,40.8,31.4,29.71,North,0,1.3,1.3,69,0.00,,,0.00,WUHU216HW,2013-02-22 06:20:00,
2013-02-22 07:25:00,40.2,31.6,29.73,West,270,3.8,3.8,71,0.00,,,0.00,WUHU216HW,2013-02-22 06:25:00,
2013-02-22 07:30:00,39.9,30.5,29.73,West,270,2.0,3.8,69,0.00,,,0.00,WUHU216HW,2013-02-22 06:30:00,
2013-02-22 07:35:00,39.7,29.9,29.73,NE,45,2.4,2.4,69,0.00,,,0.00,WUHU216HW,2013-02-22 06:35:00,
2013-02-22 07:40:00,39.5,29.4,29.73,East,90,3.1,3.1,67,0.00,,,0.00,WUHU216HW,2013-02-22 06:40:00,
2013-02-22 07:45:00,39.7,29.2,29.74,NE,45,1.5,3.1,66,0.00,,,0.00,WUHU216HW,2013-02-22 06:45:00,
2013-02-22 07:50:00,39.9,29.0,29.74,East,93,3.8,4.6,65,0.00,,,0.00,WUHU216HW,2013-02-22 06:50:00,
2013-02-22 07:55:00,40.1,28.8,29.73,ENE,68,2.7,4.6,64,0.00,,,0.00,WUHU216HW,2013-02-22 06:55:00,
2013-02-22 08:00:00,40.8,29.5,29.73,ESE,113,2.4,5.1,64,0.00,,,0.00,WUHU216HW,2013-02-22 07:00:00,
2013-02-22 08:05:00,41.5,29.8,29.73,SSE,158,4.9,5.1,63,0.00,,,0.00,WUHU216HW,2013-02-22 07:05:00,
2013-02-22 08:10:00,42.8,31.4,29.73,ENE,68,2.2,4.9,64,0.00,,,0.00,WUHU216HW,2013-02-22 07:10:00,
2013-02-22 08:15:00,43.5,32.8,29.73,ENE,68,1.7,3.5,66,0.00,,,0.00,WUHU216HW,2013-02-22 07:15:00,
2013-02-22 08:20:00,43.8,33.6,29.73,ENE,68,1.5,3.5,67,0.00,,,0.00,WUHU216HW,2013-02-22 07:20:00,
2013-02-22 08:25:00,43.8,32.8,29.72,NE,45,0.6,1.5,65,0.00,,,0.00,WUHU216HW,2013-02-22 07:25:00,
2013-02-22 08:30:00,44.2,32.7,29.72,NE,45,1.5,1.5,64,0.00,,,0.00,WUHU216HW,2013-02-22 07:30:00,
2013-02-22 08:35:00,44.0,33.0,29.72,NNE,23,2.5,2.6,66,0.00,,,0.00,WUHU216HW,2013-02-22 07:35:00,
2013-02-22 08:40:00,43.3,31.5,29.72,NE,45,1.5,3.5,63,0.00,,,0.00,WUHU216HW,2013-02-22 07:40:00,
2013-02-22 08:45:00,43.3,31.1,29.72,ENE,68,0.0,3.5,62,0.00,,,0.00,WUHU216HW,2013-02-22 07:45:00,
2013-02-22 08:50:00,43.5,30.9,29.72,ESE,113,0.0,0.0,61,0.00,,,0.00,WUHU216HW,2013-02-22 07:50:00,
2013-02-22 08:56:00,43.7,30.7,29.72,SSW,193,1.0,1.1,60,0.00,,,0.00,WUHU216HW,2013-02-22 07:56:00,
2013-02-22 09:01:00,44.0,31.1,29.72,WSW,248,3.3,3.3,60,0.00,,,0.00,WUHU216HW,2013-02-22 08:01:00,
2013-02-22 09:06:00,43.8,30.4,29.72,SW,225,2.0,3.8,59,0.00,,,0.00,WUHU216HW,2013-02-22 08:06:00,
2013-02-22 09:11:00,43.8,30.4,29.72,SW,225,3.5,3.8,59,0.00,,,0.00,WUHU216HW,2013-02-22 08:11:00,
2013-02-22 09:16:00,43.7,28.9,29.72,ENE,68,2.4,3.5,56,0.00,,,0.00,WUHU216HW,2013-02-22 08:16:00,
2013-02-22 09:21:00,43.8,29.1,29.72,NNW,338,0.8,3.5,56,0.00,,,0.00,WUHU216HW,2013-02-22 08:21:00,
2013-02-22 09:26:00,43.8,28.2,29.72,NE,45,0.0,1.5,54,0.00,,,0.00,WUHU216HW,2013-02-22 08:26:00,
2013-02-22 09:31:00,44.0,28.4,29.72,WSW,248,2.2,2.2,54,0.00,,,0.00,WUHU216HW,2013-02-22 08:31:00,
2013-02-22 09:36:00,44.2,28.1,29.72,WSW,248,0.0,3.3,53,0.00,,,0.00,WUHU216HW,2013-02-22 08:36:00,
2013-02-22 09:41:00,44.6,28.4,29.72,WSW,248,0.0,3.3,53,0.00,,,0.00,WUHU216HW,2013-02-22 08:41:00,
2013-02-22 09:46:00,44.7,28.6,29.71,East,90,0.0,1.3,53,0.00,,,0.00,WUHU216HW,2013-02-22 08:46:00,
2013-02-22 09:51:00,45.1,29.4,29.71,NNW,338,0.0,1.1,54,0.00,,,0.00,WUHU216HW,2013-02-22 08:51:00,
2013-02-22 09:56:00,45.1,29.4,29.71,North,0,0.0,0.0,54,0.00,,,0.00,WUHU216HW,2013-02-22 08:56:00,
2013-02-22 10:01:00,45.5,30.3,29.71,NNW,338,0.0,0.0,55,0.00,,,0.00,WUHU216HW,2013-02-22 09:01:00,
2013-02-22 10:06:00,46.0,30.6,29.71,East,90,0.0,0.0,55,0.00,,,0.00,WUHU216HW,2013-02-22 09:06:00,
2013-02-22 10:11:00,46.2,31.2,29.71,South,180,0.0,1.1,56,0.00,,,0.00,WUHU216HW,2013-02-22 09:11:00,
2013-02-22 10:16:00,46.5,32.0,29.71,WSW,248,0.0,1.1,57,0.00,,,0.00,WUHU216HW,2013-02-22 09:16:00,
2013-02-22 10:21:00,46.5,33.4,29.71,NW,315,2.5,2.9,60,0.00,,,0.00,WUHU216HW,2013-02-22 09:21:00,
2013-02-22 10:26:00,46.5,33.4,29.71,SW,219,1.6,2.9,60,0.00,,,0.00,WUHU216HW,2013-02-22 09:26:00,
2013-02-22 10:31:00,46.7,33.6,29.71,North,0,0.0,2.4,60,0.00,,,0.00,WUHU216HW,2013-02-22 09:31:00,
2013-02-22 10:36:00,47.1,33.9,29.71,NNW,338,0.8,1.5,60,0.00,,,0.00,WUHU216HW,2013-02-22 09:36:00,
2013-02-22 10:41:00,47.3,34.9,29.71,NW,315,0.0,3.8,62,0.00,,,0.00,WUHU216HW,2013-02-22 09:41:00,
2013-02-22 10:46:00,47.4,35.4,29.71,NW,315,0.0,3.8,63,0.00,,,0.00,WUHU216HW,2013-02-22 09:46:00,
2013-02-22 10:51:00,47.4,35.4,29.71,ENE,68,0.0,2.2,63,0.00,,,0.00,WUHU216HW,2013-02-22 09:51:00,
2013-02-22 10:56:00,47.8,35.8,29.72,ESE,113,0.0,0.0,63,0.00,,,0.00,WUHU216HW,2013-02-22 09:56:00,
2013-02-22 11:01:00,48.0,35.6,29.72,ESE,113,0.0,1.5,62,0.00,,,0.00,WUHU216HW,2013-02-22 10:01:00,
2013-02-22 11:06:00,48.0,36.0,29.71,North,0,1.1,1.5,63,0.00,,,0.00,WUHU216HW,2013-02-22 10:06:00,
2013-02-22 11:11:00,48.0,36.0,29.71,WSW,248,2.0,2.0,63,0.00,,,0.00,WUHU216HW,2013-02-22 10:11:00,
2013-02-22 11:16:00,48.0,36.0,29.72,North,1,2.1,5.1,63,0.00,,,0.00,WUHU216HW,2013-02-22 10:16:00,
2013-02-22 11:21:00,48.2,36.1,29.71,North,0,2.9,5.1,63,0.00,,,0.00,WUHU216HW,2013-02-22 10:21:00,
2013-02-22 11:26:00,48.7,35.9,29.71,NNE,23,2.2,2.9,61,0.00,,,0.00,WUHU216HW,2013-02-22 10:26:00,
2013-02-22 11:31:00,49.2,36.2,29.71,NE,45,2.6,2.9,61,0.00,,,0.00,WUHU216HW,2013-02-22 10:31:00,
2013-02-22 11:36:00,49.6,37.5,29.71,NNW,338,0.0,2.9,63,0.00,,,0.00,WUHU216HW,2013-02-22 10:36:00,
2013-02-22 11:40:00,49.6,39.0,29.71,WNW,293,0.0,3.1,67,0.00,,,0.00,WUHU216HW,2013-02-22 10:40:00,
2013-02-22 11:46:00,49.6,39.0,29.71,NW,315,2.4,3.3,67,0.00,,,0.00,WUHU216HW,2013-02-22 10:46:00,
2013-02-22 11:51:00,49.6,39.0,29.71,NW,315,0.9,3.3,67,0.00,,,0.00,WUHU216HW,2013-02-22 10:51:00,
2013-02-22 11:56:00,49.8,38.8,29.70,NNW,338,0.0,1.1,66,0.00,,,0.00,WUHU216HW,2013-02-22 10:56:00,
2013-02-22 12:01:00,49.8,39.2,29.70,NW,315,0.0,0.0,67,0.00,,,0.00,WUHU216HW,2013-02-22 11:01:00,
2013-02-22 12:06:00,50.1,39.6,29.70,NNW,338,2.0,2.0,67,0.00,,,0.00,WUHU216HW,2013-02-22 11:06:00,
2013-02-22 12:11:00,50.1,39.6,29.69,North,0,0.0,2.2,67,0.00,,,0.00,WUHU216HW,2013-02-22 11:11:00,
2013-02-22 12:16:00,50.1,39.3,29.69,NW,315,0.0,2.2,66,0.00,,,0.00,WUHU216HW,2013-02-22 11:16:00,
2013-02-22 12:21:00,50.3,39.3,29.68,NNE,23,0.0,0.0,66,0.00,,,0.00,WUHU216HW,2013-02-22 11:21:00,
2013-02-22 12:26:00,50.5,39.1,29.69,NNW,338,0.0,0.0,65,0.00,,,0.00,WUHU216HW,2013-02-22 11:26:00,
2013-02-22 12:31:00,50.5,39.1,29.68,North,0,2.0,2.0,65,0.00,,,0.00,WUHU216HW,2013-02-22 11:31:00,
2013-02-22 12:36:00,50.7,39.3,29.68,NW,315,0.0,2.0,65,0.00,,,0.00,WUHU216HW,2013-02-22 11:36:00,
2013-02-22 12:41:00,50.3,38.5,29.68,North,0,3.1,3.1,64,0.00,,,0.00,WUHU216HW,2013-02-22 11:41:00,
2013-02-22 12:46:00,50.1,38.0,29.68,NNW,338,0.0,3.1,63,0.00,,,0.00,WUHU216HW,2013-02-22 11:46:00,
2013-02-22 12:51:00,49.8,37.2,29.68,WNW,293,0.8,1.3,62,0.00,,,0.00,WUHU216HW,2013-02-22 11:51:00,
2013-02-22 12:56:00,49.6,36.3,29.68,NNW,338,0.0,4.0,60,0.00,,,0.00,WUHU216HW,2013-02-22 11:56:00,
2013-02-22 13:01:00,49.6,35.8,29.67,NE,45,0.0,4.0,59,0.00,,,0.00,WUHU216HW,2013-02-22 12:01:00,
2013-02-22 13:06:00,49.2,35.1,29.67,North,0,1.5,1.5,58,0.00,,,0.00,WUHU216HW,2013-02-22 12:06:00,
2013-02-22 13:12:00,48.9,32.9,29.67,NNW,338,1.7,2.0,54,0.00,,,0.00,WUHU216HW,2013-02-22 12:12:00,
2013-02-22 13:17:00,48.9,32.4,29.66,ENE,68,0.0,2.0,53,0.00,,,0.00,WUHU216HW,2013-02-22 12:17:00,
2013-02-22 13:22:00,48.9,32.0,29.66,ESE,113,0.8,0.8,52,0.00,,,0.00,WUHU216HW,2013-02-22 12:22:00,
2013-02-22 13:27:00,48.9,31.1,29.65,NE,45,1.7,1.7,50,0.00,,,0.00,WUHU216HW,2013-02-22 12:27:00,
2013-02-22 13:32:00,48.9,31.1,29.65,WNW,293,0.0,1.7,50,0.00,,,0.00,WUHU216HW,2013-02-22 12:32:00,
2013-02-22 13:37:00,48.9,31.1,29.65,WNW,293,1.5,1.7,50,0.00,,,0.00,WUHU216HW,2013-02-22 12:37:00,
2013-02-22 13:42:00,48.7,30.3,29.65,WNW,303,1.6,3.1,49,0.00,,,0.00,WUHU216HW,2013-02-22 12:42:00,
2013-02-22 13:47:00,48.7,29.8,29.65,NW,315,1.5,3.1,48,0.00,,,0.00,WUHU216HW,2013-02-22 12:47:00,
2013-02-22 13:52:00,48.7,29.8,29.65,NNW,338,3.3,3.3,48,0.00,,,0.00,WUHU216HW,2013-02-22 12:52:00,
2013-02-22 13:57:00,48.7,29.2,29.65,North,0,1.1,3.3,47,0.00,,,0.00,WUHU216HW,2013-02-22 12:57:00,
2013-02-22 14:02:00,48.9,29.4,29.65,North,0,0.6,2.0,47,0.00,,,0.00,WUHU216HW,2013-02-22 13:02:00,
2013-02-22 14:07:00,48.9,29.4,29.64,North,0,0.0,1.7,47,0.00,,,0.00,WUHU216HW,2013-02-22 13:07:00,
2013-02-22 14:12:00,48.9,29.4,29.64,NNW,338,0.0,1.3,47,0.00,,,0.00,WUHU216HW,2013-02-22 13:12:00,
2013-02-22 14:17:00,49.1,29.0,29.64,SSE,149,1.4,1.5,46,0.00,,,0.00,WUHU216HW,2013-02-22 13:17:00,
2013-02-22 14:22:00,49.2,29.2,29.63,ESE,113,3.8,4.2,46,0.00,,,0.00,WUHU216HW,2013-02-22 13:22:00,
2013-02-22 14:27:00,49.6,29.5,29.63,SSE,158,0.8,6.0,46,0.00,,,0.00,WUHU216HW,2013-02-22 13:27:00,
2013-02-22 14:32:00,50.3,34.7,29.64,SSE,154,13.6,16.5,55,0.00,,,0.00,WUHU216HW,2013-02-22 13:32:00,
2013-02-22 14:37:00,50.7,41.3,29.63,SE,130,10.0,16.5,70,0.00,,,0.00,WUHU216HW,2013-02-22 13:37:00,
2013-02-22 14:42:00,51.6,42.2,29.63,SSE,168,6.7,14.5,70,0.00,,,0.00,WUHU216HW,2013-02-22 13:42:00,
2013-02-22 14:47:00,52.1,43.7,29.63,East,90,5.3,12.3,73,0.00,,,0.00,WUHU216HW,2013-02-22 13:47:00,
2013-02-22 14:52:00,52.3,44.3,29.62,SSE,158,7.8,9.8,74,0.00,,,0.00,WUHU216HW,2013-02-22 13:52:00,
2013-02-22 14:57:00,52.3,44.6,29.63,ESE,113,6.0,8.9,75,0.00,,,0.00,WUHU216HW,2013-02-22 13:57:00,
2013-02-22 15:02:00,52.8,45.5,29.62,SSE,160,4.0,8.9,76,0.00,,,0.00,WUHU216HW,2013-02-22 14:02:00,
2013-02-22 15:07:00,52.7,45.3,29.62,SE,146,7.3,7.6,76,0.00,,,0.00,WUHU216HW,2013-02-22 14:07:00,
2013-02-22 15:12:00,52.5,45.1,29.62,SSE,154,9.5,11.8,76,0.00,,,0.00,WUHU216HW,2013-02-22 14:12:00,
2013-02-22 15:17:00,52.1,44.4,29.62,ESE,113,7.6,15.2,75,0.00,,,0.00,WUHU216HW,2013-02-22 14:17:00,
2013-02-22 15:22:00,51.8,43.8,29.62,SE,135,11.8,15.2,74,0.00,,,0.00,WUHU216HW,2013-02-22 14:22:00,
2013-02-22 15:27:00,51.6,43.2,29.61,ESE,114,3.0,11.8,73,0.00,,,0.00,WUHU216HW,2013-02-22 14:27:00,
2013-02-22 15:32:00,51.6,42.9,29.61,South,180,8.0,8.0,72,0.00,,,0.00,WUHU216HW,2013-02-22 14:32:00,
2013-02-22 15:37:00,51.8,43.4,29.61,SE,145,5.6,8.0,73,0.00,,,0.00,WUHU216HW,2013-02-22 14:37:00,
2013-02-22 15:42:00,51.9,43.6,29.61,ESE,113,2.9,6.4,73,0.00,,,0.00,WUHU216HW,2013-02-22 14:42:00,
2013-02-22 15:47:00,51.9,43.6,29.62,East,90,7.3,7.3,73,0.00,,,0.00,WUHU216HW,2013-02-22 14:47:00,
2013-02-22 15:52:00,51.8,43.4,29.61,SSE,158,3.5,7.3,73,0.00,,,0.00,WUHU216HW,2013-02-22 14:52:00,
2013-02-22 15:57:00,51.6,42.9,29.61,SE,135,3.1,6.0,72,0.00,,,0.00,WUHU216HW,2013-02-22 14:57:00,
2013-02-22 16:03:00,51.6,42.6,29.61,SSE,158,6.9,6.9,71,0.00,,,0.00,WUHU216HW,2013-02-22 15:03:00,
2013-02-22 16:08:00,51.8,43.1,29.61,ESE,113,12.5,14.3,72,0.00,,,0.00,WUHU216HW,2013-02-22 15:08:00,
2013-02-22 16:13:00,51.9,43.6,29.61,SSE,158,6.7,14.3,73,0.00,,,0.00,WUHU216HW,2013-02-22 15:13:00,
2013-02-22 16:18:00,52.3,44.3,29.61,SE,135,14.3,14.3,74,0.00,,,0.00,WUHU216HW,2013-02-22 15:18:00,
2013-02-22 16:23:00,52.8,45.1,29.61,ESE,113,8.5,14.3,75,0.00,,,0.00,WUHU216HW,2013-02-22 15:23:00,
2013-02-22 16:28:00,52.8,45.1,29.61,South,180,7.0,9.3,75,0.00,,,0.00,WUHU216HW,2013-02-22 15:28:00,
2013-02-22 16:33:00,53.4,46.0,29.60,South,180,7.3,10.2,76,0.00,,,0.00,WUHU216HW,2013-02-22 15:33:00,
2013-02-22 16:38:00,53.7,46.3,29.60,South,180,7.5,10.7,76,0.00,,,0.00,WUHU216HW,2013-02-22 15:38:00,
2013-02-22 16:43:00,53.4,46.0,29.61,South,180,4.6,10.7,76,0.00,,,0.00,WUHU216HW,2013-02-22 15:43:00,
2013-02-22 16:48:00,53.4,46.0,29.61,SSW,210,3.1,5.5,76,0.00,,,0.00,WUHU216HW,2013-02-22 15:48:00,
2013-02-22 16:53:00,53.2,45.8,29.61,SSW,203,3.3,5.5,76,0.00,,,0.00,WUHU216HW,2013-02-22 15:53:00,
2013-02-22 16:58:00,53.4,45.6,29.60,SSW,203,0.0,3.3,75,0.00,,,0.00,WUHU216HW,2013-02-22 15:58:00,
2013-02-22 17:03:00,53.4,45.6,29.60,South,171,1.6,2.0,75,0.00,,,0.00,WUHU216HW,2013-02-22 16:03:00,
2013-02-22 17:08:00,53.4,45.6,29.60,SSE,158,3.1,4.4,75,0.00,,,0.00,WUHU216HW,2013-02-22 16:08:00,
2013-02-22 17:13:00,53.4,45.6,29.60,SSW,203,3.1,4.6,75,0.00,,,0.00,WUHU216HW,2013-02-22 16:13:00,
2013-02-22 17:18:00,53.4,45.6,29.60,South,180,2.0,4.6,75,0.00,,,0.00,WUHU216HW,2013-02-22 16:18:00,
2013-02-22 17:23:00,53.4,45.6,29.59,WSW,248,2.4,4.6,75,0.00,,,0.00,WUHU216HW,2013-02-22 16:23:00,
2013-02-22 17:28:00,53.2,44.9,29.60,SW,225,1.3,7.8,74,0.00,,,0.00,WUHU216HW,2013-02-22 16:28:00,
2013-02-22 17:33:00,52.5,43.7,29.60,SE,135,3.8,7.8,72,0.00,,,0.00,WUHU216HW,2013-02-22 16:33:00,
2013-02-22 17:38:00,52.3,43.6,29.60,SSE,158,6.2,7.3,72,0.00,,,0.00,WUHU216HW,2013-02-22 16:38:00,
2013-02-22 17:43:00,52.5,43.7,29.60,SSE,158,4.0,7.3,72,0.00,,,0.00,WUHU216HW,2013-02-22 16:43:00,
2013-02-22 17:48:00,52.5,44.1,29.60,South,180,4.4,6.2,73,0.00,,,0.00,WUHU216HW,2013-02-22 16:48:00,
2013-02-22 17:53:00,52.5,44.1,29.59,ESE,113,7.6,7.6,73,0.00,,,0.00,WUHU216HW,2013-02-22 16:53:00,
2013-02-22 17:58:00,52.5,44.1,29.59,SE,135,4.9,7.6,73,0.00,,,0.00,WUHU216HW,2013-02-22 16:58:00,
2013-02-22 18:03:00,52.7,44.6,29.59,ESE,113,2.6,5.8,74,0.00,,,0.00,WUHU216HW,2013-02-22 17:03:00,
2013-02-22 18:08:00,52.7,44.9,29.59,ESE,113,3.3,5.5,75,0.00,,,0.00,WUHU216HW,2013-02-22 17:08:00,
2013-02-22 18:13:00,52.8,45.5,29.59,ESE,121,2.0,6.4,76,0.00,,,0.00,WUHU216HW,2013-02-22 17:13:00,
2013-02-22 18:18:00,52.8,45.5,29.59,East,90,0.8,6.4,76,0.00,,,0.00,WUHU216HW,2013-02-22 17:18:00,
2013-02-22 18:23:00,52.3,44.6,29.59,ESE,113,0.6,4.9,75,0.00,,,0.00,WUHU216HW,2013-02-22 17:23:00,
2013-02-22 18:28:00,51.9,43.9,29.59,WNW,293,0.0,2.2,74,0.00,,,0.00,WUHU216HW,2013-02-22 17:28:00,
2013-02-22 18:33:00,51.6,42.9,29.59,SSW,203,0.0,1.5,72,0.00,,,0.00,WUHU216HW,2013-02-22 17:33:00,
2013-02-22 18:38:00,51.2,41.9,29.59,SW,217,2.7,2.9,70,0.00,,,0.00,WUHU216HW,2013-02-22 17:38:00,
2013-02-22 18:43:00,52.1,42.7,29.59,SE,135,8.1,10.5,70,0.00,,,0.00,WUHU216HW,2013-02-22 17:43:00,
2013-02-22 18:48:00,52.5,43.7,29.58,East,90,4.6,10.5,72,0.00,,,0.00,WUHU216HW,2013-02-22 17:48:00,
2013-02-22 18:53:00,52.8,44.8,29.58,South,176,5.0,6.7,74,0.00,,,0.00,WUHU216HW,2013-02-22 17:53:00,
2013-02-22 18:58:00,53.2,45.8,29.58,SE,128,4.6,10.7,76,0.00,,,0.00,WUHU216HW,2013-02-22 17:58:00,
2013-02-22 19:03:00,53.2,45.8,29.58,SSE,158,5.1,10.7,76,0.00,,,0.00,WUHU216HW,2013-02-22 18:03:00,
2013-02-22 19:08:00,53.2,45.8,29.58,South,180,8.9,8.9,76,0.00,,,0.00,WUHU216HW,2013-02-22 18:08:00,
2013-02-22 19:13:00,53.2,45.5,29.58,SE,135,4.6,8.9,75,0.00,,,0.00,WUHU216HW,2013-02-22 18:13:00,
2013-02-22 19:18:00,52.8,45.1,29.58,ESE,113,4.0,6.9,75,0.00,,,0.00,WUHU216HW,2013-02-22 18:18:00,
2013-02-22 19:23:00,52.8,44.8,29.58,ESE,113,9.8,9.8,74,0.00,,,0.00,WUHU216HW,2013-02-22 18:23:00,
2013-02-22 19:28:00,52.8,44.8,29.58,SSE,158,6.4,13.6,74,0.00,,,0.00,WUHU216HW,2013-02-22 18:28:00,
2013-02-22 19:33:00,52.8,45.1,29.58,East,90,3.8,13.6,75,0.00,,,0.00,WUHU216HW,2013-02-22 18:33:00,
2013-02-22 19:38:00,52.8,44.8,29.58,East,90,6.2,9.3,74,0.00,,,0.00,WUHU216HW,2013-02-22 18:38:00,
2013-02-22 19:43:00,52.8,44.4,29.58,SE,125,7.9,11.4,74,0.00,,,0.00,WUHU216HW,2013-02-22 18:43:00,
2013-02-22 19:48:00,52.8,44.4,29.57,SSW,197,4.7,11.4,73,0.00,,,0.00,WUHU216HW,2013-02-22 18:48:00,
2013-02-22 19:53:00,52.8,44.1,29.58,ESE,113,5.3,7.3,72,0.00,,,0.00,WUHU216HW,2013-02-22 18:53:00,
2013-02-22 19:58:00,52.8,43.7,29.58,SSE,165,7.0,9.1,71,0.00,,,0.00,WUHU216HW,2013-02-22 18:58:00,
2013-02-22 20:03:00,52.8,43.7,29.57,ESE,113,4.4,9.1,71,0.00,,,0.00,WUHU216HW,2013-02-22 19:03:00,
2013-02-22 20:08:00,52.8,42.9,29.58,SSE,151,4.3,9.1,70,0.00,,,0.00,WUHU216HW,2013-02-22 19:08:00,
2013-02-22 20:13:00,52.8,42.9,29.58,SE,135,7.6,7.6,69,0.00,,,0.00,WUHU216HW,2013-02-22 19:13:00,
2013-02-22 20:18:00,52.8,42.6,29.57,East,99,5.9,7.6,68,0.00,,,0.00,WUHU216HW,2013-02-22 19:18:00,
2013-02-22 20:23:00,53.0,42.7,29.57,SE,135,4.6,7.3,68,0.00,,,0.00,WUHU216HW,2013-02-22 19:23:00,
2013-02-22 20:28:00,53.0,42.3,29.56,ESE,121,4.8,7.3,67,0.00,,,0.00,WUHU216HW,2013-02-22 19:28:00,
2013-02-22 20:33:00,53.0,42.7,29.57,SSE,158,3.3,7.3,68,0.00,,,0.00,WUHU216HW,2013-02-22 19:33:00,
2013-02-22 20:38:00,53.2,42.5,29.58,ESE,113,5.8,9.6,67,0.00,,,0.00,WUHU216HW,2013-02-22 19:38:00,
2013-02-22 20:43:00,52.3,40.0,29.58,SSW,203,14.0,14.0,63,0.00,,,0.00,WUHU216HW,2013-02-22 19:43:00,
2013-02-22 20:48:00,51.9,36.2,29.59,South,180,16.7,19.0,55,0.00,,,0.00,WUHU216HW,2013-02-22 19:48:00,
2013-02-22 20:53:00,51.6,34.0,29.58,South,180,13.6,16.7,51,0.00,,,0.00,WUHU216HW,2013-02-22 19:53:00,
2013-02-22 20:58:00,51.9,33.4,29.58,South,182,10.0,13.8,49,0.00,,,0.00,WUHU216HW,2013-02-22 19:58:00,
2013-02-22 21:03:00,51.9,33.9,29.58,SSW,203,9.1,13.8,50,0.00,,,0.00,WUHU216HW,2013-02-22 20:03:00,
2013-02-22 21:09:00,52.1,34.1,29.58,SW,225,3.8,13.1,50,0.00,,,0.00,WUHU216HW,2013-02-22 20:09:00,
2013-02-22 21:16:00,52.1,34.5,29.58,SW,225,1.3,5.3,51,0.00,,,0.00,WUHU216HW,2013-02-22 20:16:00,
2013-02-22 21:22:00,51.9,34.4,29.58,SW,225,0.6,4.0,51,0.00,,,0.00,WUHU216HW,2013-02-22 20:22:00,
2013-02-22 21:27:00,51.9,34.4,29.58,SW,225,6.0,6.0,51,0.00,,,0.00,WUHU216HW,2013-02-22 20:27:00,
2013-02-22 21:32:00,52.1,35.0,29.58,WSW,240,2.2,6.0,52,0.00,,,0.00,WUHU216HW,2013-02-22 20:32:00,
2013-02-22 21:37:00,52.1,35.4,29.58,SSE,158,3.5,3.5,53,0.00,,,0.00,WUHU216HW,2013-02-22 20:37:00,
2013-02-22 21:42:00,52.3,37.0,29.58,South,180,0.0,3.5,56,0.00,,,0.00,WUHU216HW,2013-02-22 20:42:00,
2013-02-22 21:47:00,52.3,37.4,29.58,SW,225,6.0,6.0,57,0.00,,,0.00,WUHU216HW,2013-02-22 20:47:00,
2013-02-22 21:52:00,52.7,40.4,29.58,South,180,4.4,12.9,63,0.00,,,0.00,WUHU216HW,2013-02-22 20:52:00,
2013-02-22 21:57:00,52.5,40.6,29.58,SW,227,6.5,12.9,64,0.00,,,0.00,WUHU216HW,2013-02-22 20:57:00,
2013-02-22 22:02:00,52.3,40.0,29.58,South,188,5.1,8.9,63,0.00,,,0.00,WUHU216HW,2013-02-22 21:02:00,
2013-02-22 22:07:00,52.3,40.0,29.58,SSW,203,6.0,7.6,63,0.00,,,0.00,WUHU216HW,2013-02-22 21:07:00,
2013-02-22 22:12:00,52.3,40.0,29.57,SW,225,1.9,7.6,63,0.00,,,0.00,WUHU216HW,2013-02-22 21:12:00,
2013-02-22 22:16:00,52.3,40.0,29.57,SW,225,1.3,3.5,63,0.00,,,0.00,WUHU216HW,2013-02-22 21:16:00,
2013-02-22 22:21:00,52.1,39.8,29.57,South,180,5.3,5.3,63,0.00,,,0.00,WUHU216HW,2013-02-22 21:21:00,
2013-02-22 22:26:00,52.3,40.0,29.56,SSE,158,3.5,5.3,63,0.00,,,0.00,WUHU216HW,2013-02-22 21:26:00,
2013-02-22 22:31:00,52.1,39.0,29.57,SW,225,0.8,3.5,61,0.00,,,0.00,WUHU216HW,2013-02-22 21:31:00,
2013-02-22 22:36:00,52.1,38.6,29.56,SSW,203,2.4,8.0,60,0.00,,,0.00,WUHU216HW,2013-02-22 21:36:00,
2013-02-22 22:41:00,52.3,38.3,29.56,South,180,11.8,11.8,59,0.00,,,0.00,WUHU216HW,2013-02-22 21:41:00,
2013-02-22 22:46:00,52.5,39.0,29.56,South,190,2.2,11.8,60,0.00,,,0.00,WUHU216HW,2013-02-22 21:46:00,
2013-02-22 22:51:00,52.5,38.5,29.56,South,173,4.9,7.3,59,0.00,,,0.00,WUHU216HW,2013-02-22 21:51:00,
2013-02-22 22:56:00,52.5,38.1,29.56,South,180,5.8,9.8,57,0.00,,,0.00,WUHU216HW,2013-02-22 21:56:00,
2013-02-22 23:01:00,52.3,36.5,29.56,WSW,253,8.9,13.6,55,0.00,,,0.00,WUHU216HW,2013-02-22 22:01:00,
2013-02-22 23:06:00,52.3,36.1,29.56,SSE,158,13.1,14.5,54,0.00,,,0.00,WUHU216HW,2013-02-22 22:06:00,
2013-02-22 23:11:00,52.5,35.3,29.56,South,180,7.2,14.5,52,0.00,,,0.00,WUHU216HW,2013-02-22 22:11:00,
2013-02-22 23:16:00,52.5,34.8,29.56,SSW,197,5.9,14.0,51,0.00,,,0.00,WUHU216HW,2013-02-22 22:16:00,
2013-02-22 23:21:00,52.7,34.6,29.57,South,180,9.3,10.2,50,0.00,,,0.00,WUHU216HW,2013-02-22 22:21:00,
2013-02-22 23:26:00,52.8,34.7,29.57,SSE,148,4.6,18.1,50,0.00,,,0.00,WUHU216HW,2013-02-22 22:26:00,
2013-02-22 23:31:00,53.2,36.4,29.57,South,184,6.3,18.1,53,0.00,,,0.00,WUHU216HW,2013-02-22 22:31:00,
2013-02-22 23:36:00,53.2,38.8,29.58,WNW,282,3.0,13.4,58,0.00,,,0.00,WUHU216HW,2013-02-22 22:36:00,
2013-02-22 23:41:00,53.2,38.8,29.58,West,276,4.0,9.1,58,0.00,,,0.00,WUHU216HW,2013-02-22 22:41:00,
2013-02-22 23:46:00,52.8,38.4,29.58,WSW,246,3.1,5.8,58,0.00,,,0.00,WUHU216HW,2013-02-22 22:46:00,
2013-02-22 23:51:00,52.8,39.7,29.58,SW,225,5.3,5.8,60,0.00,,,0.00,WUHU216HW,2013-02-22 22:51:00,
2013-02-22 23:56:00,53.2,42.1,29.59,SSW,206,5.1,7.6,66,0.00,,,0.00,WUHU216HW,2013-02-22 22:56:00,